Flag for Syria Weather past 2 weeks in Damascus, Syria

Now
70 °F

Clear.


Feels Like: 70 °F
Forecast: 62 / 103 °F
Wind: 9 mph from Southwest

Location: Damascus Int. Airport

Current Time: Aug 30, 2014 at 8:08:38 AM

Latest Report: Aug 30, 2014 at 7:00 AM


Visibility: 10 mi

Pressure: 29.89 "Hg

Humidity: 94%

Dew point: 68 °F

Location of DamascusLocation

Historic Weather in Damascus — Graph

°F

Damascus temperature yesterday

Maximum temperature yesterday: 97 °F (at 4:00 PM)
Minimum temperature yesterday: 68 °F (at 4:00 AM)
Average temperature yesterday: 80 °F

Past Weeks' High & Low Weather Summary

 TemperatureHumidityPressure
High106 °F (Aug 24, 5:00 PM)100% (Aug 19, 7:00 PM)30.01 "Hg (Aug 19, 7:00 PM)
Low36 °F (Aug 19, 7:00 PM)5% (Aug 21, 4:00 PM)29.65 "Hg (Aug 18, 5:00 PM)
Average83 °F46%29.83 "Hg
* Reported Aug 15 7:00 AM — Aug 30 7:00 AM, Damascus, Weather by CustomWeather, © 2014

Note: Actual official high and low records may vary slightly from our data, if they occured in-between our weather recording intervals... More about our weather records

Advertising

Damascus weather history for previous 24 hours

 ConditionsComfort  
Time TempWeatherWind HumidityBarometerVisibility
7:00 AM
Aug 30
70 °FClear.9 mph94%29.89 "Hg10 mi
6:00 AM70 °FClear.10 mph94%29.89 "Hg10 mi
5:00 AM72 °FClear.9 mph83%29.86 "Hg10 mi
4:00 AM72 °FClear.12 mph83%29.86 "Hg10 mi
3:00 AM72 °FClear.12 mph88%29.86 "Hg10 mi
2:00 AM73 °FClear.12 mph83%29.86 "Hg10 mi
1:00 AM73 °FClear.13 mph83%29.86 "Hg10 mi
12:00 AM75 °FClear.15 mph78%29.86 "Hg10 mi
10:00 PM
Aug 29
77 °FClear.17 mph69%29.86 "Hg10 mi
9:00 PM79 °FClear.22 mph65%29.83 "Hg10 mi
8:00 PM82 °FSunny.16 mph55%29.80 "Hg10 mi
7:00 PM86 °FSunny.22 mph49%29.80 "Hg10 mi
6:00 PM91 °FSunny.23 mph38%29.77 "Hg10 mi
5:00 PM95 °FSunny.20 mph30%29.77 "Hg10 mi
4:00 PM97 °FSunny.18 mph27%29.77 "Hg10 mi
3:00 PM95 °FSunny.8 mph25%29.80 "Hg10 mi
2:00 PM95 °FSunny.7 mph25%29.80 "Hg10 mi
1:00 PM90 °FSunny.3 mph33%29.83 "Hg10 mi
12:00 PM86 °FSunny.6 mph40%29.86 "Hg10 mi
11:00 AM82 °FSunny.8 mph48%29.89 "Hg10 mi
10:00 AM79 °FSunny.6 mph54%29.89 "Hg10 mi
9:00 AM75 °FSunny.9 mph61%29.89 "Hg10 mi
8:00 AM72 °FSunny.13 mph73%29.86 "Hg10 mi
Weather by CustomWeather, © 2014

See weather overviewHow to use our weather pages